| time (UTC) | temp F | wind direction | speed knots | gust knots | rain 1hr in | rain 24hr in | rain mn in | humidity % | barometer mb |
| 20260505224018 | 71 | 167 | 5.2 | 13.0 | 0.00 | 0.00 | 0.00 | 67 | 1018.9 |
| 20260505223526 | 71 | 165 | 3.5 | 10.4 | 0.00 | 0.00 | 0.00 | 67 | 1019.1 |
| 20260505223058 | 71 | 200 | 5.2 | 10.4 | 0.00 | 0.00 | 0.00 | 68 | 1018.9 |
| 20260505222518 | 71 | 250 | 3.5 | 9.6 | 0.00 | 0.00 | 0.00 | 68 | 1018.9 |
| 20260505222022 | 72 | 170 | 4.3 | 8.7 | 0.00 | 0.00 | 0.00 | 68 | 1018.9 |
| 20260505221558 | 72 | 191 | 5.2 | 12.2 | 0.00 | 0.00 | 0.00 | 68 | 1018.9 |
| 20260505221022 | 72 | 181 | 3.5 | 14.8 | 0.00 | 0.00 | 0.00 | 68 | 1018.8 |
| 20260505220518 | 72 | 158 | 5.2 | 13.0 | 0.00 | 0.00 | 0.00 | 68 | 1018.7 |
| 20260505220106 | 72 | 194 | 5.2 | 13.0 | 0.00 | 0.00 | 0.00 | 68 | 1018.7 |
| 20260505215516 | 71 | 157 | 7.8 | 15.6 | 0.00 | 0.00 | 0.00 | 67 | 1018.8 |
| 20260505215018 | 72 | 204 | 6.1 | 13.9 | 0.00 | 0.00 | 0.00 | 67 | 1018.7 |
| 20260505214624 | 72 | 222 | 6.1 | 11.3 | 0.00 | 0.00 | 0.00 | 67 | 1018.8 |
| 20260505214021 | 72 | 211 | 4.3 | 14.8 | 0.00 | 0.00 | 0.00 | 67 | 1018.9 |
| 20260505213516 | 72 | 206 | 7.8 | 18.2 | 0.00 | 0.00 | 0.00 | 66 | 1018.8 |
| 20260505213107 | 72 | 215 | 7.8 | 13.9 | 0.00 | 0.00 | 0.00 | 67 | 1018.6 |
| 20260505212518 | 72 | 195 | 7.0 | 13.9 | 0.00 | 0.00 | 0.00 | 67 | 1018.4 |
| 20260505212015 | 73 | 225 | 7.8 | 13.9 | 0.00 | 0.00 | 0.00 | 67 | 1018.7 |
| 20260505211818 | 73 | 187 | 4.3 | 13.0 | 0.00 | 0.00 | 0.00 | 67 | 1018.7 |
| 20260505211021 | 73 | 208 | 5.2 | 15.6 | 0.00 | 0.00 | 0.00 | 67 | 1018.7 |
| 20260505210516 | 73 | 197 | 5.2 | 15.6 | 0.00 | 0.00 | 0.00 | 67 | 1018.8 |
| 20260505210103 | 73 | 187 | 3.5 | 13.9 | 0.00 | 0.00 | 0.00 | 68 | 1018.7 |
| 20260505205516 | 73 | 154 | 7.8 | 13.9 | 0.00 | 0.00 | 0.00 | 67 | 1018.8 |
| 20260505205018 | 74 | 179 | 7.0 | 14.8 | 0.00 | 0.00 | 0.00 | 66 | 1018.9 |
| 20260505204556 | 75 | 180 | 4.3 | 10.4 | 0.00 | 0.00 | 0.00 | 66 | 1018.7 |
| 20260505204022 | 75 | 221 | 4.3 | 12.2 | 0.00 | 0.00 | 0.00 | 67 | 1018.7 |
| 20260505203517 | 74 | 198 | 2.6 | 12.2 | 0.00 | 0.00 | 0.00 | 68 | 1018.7 |
| 20260505203053 | 74 | 166 | 4.3 | 11.3 | 0.00 | 0.00 | 0.00 | 67 | 1018.7 |
| 20260505202552 | 74 | 204 | 7.0 | 11.3 | 0.00 | 0.00 | 0.00 | 66 | 1018.8 |
| 20260505202017 | 74 | 124 | 5.2 | 15.6 | 0.00 | 0.00 | 0.00 | 66 | 1019.0 |
| 20260505201550 | 74 | 210 | 7.0 | 14.8 | 0.00 | 0.00 | 0.00 | 65 | 1019.1 |
| 20260505201013 | 74 | 161 | 7.0 | 14.8 | 0.00 | 0.00 | 0.00 | 66 | 1019.1 |
| 20260505200514 | 74 | 217 | 4.3 | 16.5 | 0.00 | 0.00 | 0.00 | 67 | 1019.3 |
| 20260505195514 | 74 | 186 | 7.0 | 14.8 | 0.00 | 0.00 | 0.00 | 65 | 1019.4 |
| 20260505195015 | 74 | 176 | 7.8 | 16.5 | 0.00 | 0.00 | 0.00 | 64 | 1019.5 |
| 20260505194602 | 75 | 147 | 8.7 | 16.5 | 0.00 | 0.00 | 0.00 | 64 | 1019.2 |
| 20260505194018 | 75 | 185 | 5.2 | 14.8 | 0.00 | 0.00 | 0.00 | 66 | 1019.6 |
| 20260505193516 | 74 | 164 | 7.0 | 13.0 | 0.00 | 0.00 | 0.00 | 65 | 1019.5 |
| 20260505193103 | 75 | 134 | 5.2 | 10.4 | 0.00 | 0.00 | 0.00 | 66 | 1019.6 |
| 20260505192516 | 74 | 204 | 5.2 | 13.9 | 0.00 | 0.00 | 0.00 | 67 | 1019.5 |
| 20260505192019 | 74 | 220 | 7.0 | 13.9 | 0.00 | 0.00 | 0.00 | 66 | 1019.6 |
| 20260505191556 | 75 | 141 | 7.8 | 13.9 | 0.00 | 0.00 | 0.00 | 64 | 1019.7 |
| 20260505191013 | 76 | 123 | 5.2 | 12.2 | 0.00 | 0.00 | 0.00 | 64 | 1019.7 |
| 20260505190513 | 74 | 186 | 6.1 | 13.0 | 0.00 | 0.00 | 0.00 | 67 | 1019.6 |
| 20260505190104 | 75 | 197 | 6.1 | 15.6 | 0.00 | 0.00 | 0.00 | 67 | 1019.7 |
| 20260505185515 | 74 | 181 | 7.8 | 15.6 | 0.00 | 0.00 | 0.00 | 67 | 1019.6 |
| 20260505185018 | 74 | 176 | 7.0 | 15.6 | 0.00 | 0.00 | 0.00 | 66 | 1019.8 |
| 20260505184600 | 75 | 236 | 6.1 | 16.5 | 0.00 | 0.00 | 0.00 | 66 | 1020.1 |
| 20260505184015 | 76 | 166 | 7.0 | 15.6 | 0.00 | 0.00 | 0.00 | 65 | 1020.2 |
| 20260505183517 | 77 | 177 | 5.2 | 13.9 | 0.00 | 0.00 | 0.00 | 63 | 1020.1 |
| 20260505183103 | 78 | 162 | 4.3 | 10.4 | 0.00 | 0.00 | 0.00 | 62 | 1020.3 |
| 20260505182522 | 77 | 206 | 5.2 | 10.4 | 0.00 | 0.00 | 0.00 | 62 | 1020.1 |
| 20260505182016 | 77 | 218 | 6.1 | 11.3 | 0.00 | 0.00 | 0.00 | 61 | 1020.3 |
| 20260505181609 | 77 | 162 | 4.3 | 11.3 | 0.00 | 0.00 | 0.00 | 62 | 1020.6 |
| 20260505181015 | 78 | 159 | 6.1 | 10.4 | 0.00 | 0.00 | 0.00 | 60 | 1020.7 |
| 20260505180520 | 78 | 226 | 4.3 | 10.4 | 0.00 | 0.00 | 0.00 | 61 | 1020.6 |
| 20260505180112 | 77 | 213 | 5.2 | 13.0 | 0.00 | 0.00 | 0.00 | 60 | 1020.6 |
| 20260505175519 | 78 | 210 | 5.2 | 13.0 | 0.00 | 0.00 | 0.00 | 59 | 1020.6 |
| 20260505175018 | 78 | 168 | 7.0 | 11.3 | 0.00 | 0.00 | 0.00 | 57 | 1020.5 |
| 20260505174605 | 78 | 174 | 5.2 | 12.2 | 0.00 | 0.00 | 0.00 | 58 | 1020.4 |
| 20260505174015 | 78 | 141 | 7.0 | 12.2 | 0.00 | 0.00 | 0.00 | 58 | 1020.6 |
| 20260505173519 | 78 | 197 | 5.2 | 12.2 | 0.00 | 0.00 | 0.00 | 58 | 1020.6 |
| 20260505173051 | 77 | 182 | 7.0 | 14.8 | 0.00 | 0.00 | 0.00 | 57 | 1020.7 |
| 20260505172517 | 77 | 187 | 6.1 | 14.8 | 0.00 | 0.00 | 0.00 | 57 | 1020.7 |
| 20260505172015 | 78 | 205 | 5.2 | 13.9 | 0.00 | 0.00 | 0.00 | 58 | 1020.7 |
| 20260505171600 | 77 | 185 | 6.1 | 13.9 | 0.00 | 0.00 | 0.00 | 57 | 1020.7 |
| 20260505171017 | 78 | 173 | 4.3 | 13.0 | 0.00 | 0.00 | 0.00 | 58 | 1020.8 |
| 20260505170515 | 76 | 189 | 7.8 | 11.3 | 0.00 | 0.00 | 0.00 | 59 | 1020.8 |
| 20260505170057 | 78 | 185 | 2.6 | 13.9 | 0.00 | 0.00 | 0.00 | 58 | 1020.6 |
| 20260505165518 | 76 | 206 | 5.2 | 13.9 | 0.00 | 0.00 | 0.00 | 60 | 1020.6 |
| 20260505165017 | 75 | 196 | 7.8 | 12.2 | 0.00 | 0.00 | 0.00 | 60 | 1020.6 |
| 20260505164555 | 75 | 202 | 7.8 | 14.8 | 0.00 | 0.00 | 0.00 | 62 | 1020.7 |
| 20260505164015 | 75 | 181 | 7.0 | 14.8 | 0.00 | 0.00 | 0.00 | 61 | 1020.7 |
| 20260505163517 | 76 | 195 | 7.0 | 14.8 | 0.00 | 0.00 | 0.00 | 61 | 1020.8 |
| 20260505163105 | 76 | 113 | 7.8 | 13.9 | 0.00 | 0.00 | 0.00 | 59 | 1020.8 |
| 20260505162518 | 76 | 169 | 6.1 | 13.9 | 0.00 | 0.00 | 0.00 | 61 | 1020.8 |
| 20260505162016 | 76 | 195 | 6.1 | 14.8 | 0.00 | 0.00 | 0.00 | 61 | 1020.9 |
| 20260505161614 | 76 | 210 | 5.2 | 12.2 | 0.00 | 0.00 | 0.00 | 60 | 1020.7 |
| 20260505161019 | 77 | 128 | 4.3 | 12.2 | 0.00 | 0.00 | 0.00 | 60 | 1020.6 |
| 20260505160519 | 76 | 212 | 7.0 | 12.2 | 0.00 | 0.00 | 0.00 | 61 | 1020.5 |
| 20260505160104 | 76 | 130 | 7.0 | 13.9 | 0.00 | 0.00 | 0.00 | 60 | 1020.8 |
| 20260505153058 | 76 | 216 | 5.2 | 12.2 | 0.00 | 0.00 | 0.00 | 59 | 1020.5 |
| 20260505152519 | 77 | 208 | 3.5 | 10.4 | 0.00 | 0.00 | 0.00 | 62 | 1020.6 |
| 20260505152015 | 75 | 170 | 6.1 | 15.6 | 0.00 | 0.00 | 0.00 | 63 | 1020.7 |
| 20260505151600 | 75 | 198 | 7.0 | 11.3 | 0.00 | 0.00 | 0.00 | 64 | 1020.6 |
| 20260505151018 | 77 | 171 | 4.3 | 10.4 | 0.00 | 0.00 | 0.00 | 63 | 1020.6 |
| 20260505150531 | 76 | 139 | 3.5 | 11.3 | 0.00 | 0.00 | 0.00 | 67 | 1020.6 |
| 20260505140516 | 77 | 241 | 1.7 | 10.4 | 0.00 | 0.00 | 0.00 | 59 | 1020.1 |
| 20260505125015 | 72 | 189 | 1.7 | 7.0 | 0.00 | 0.00 | 0.00 | 70 | 1019.8 |
| 20260505124539 | 72 | 273 | 2.6 | 5.2 | 0.00 | 0.00 | 0.00 | 70 | 1019.7 |
| 20260505124016 | 71 | 228 | 2.6 | 4.3 | 0.00 | 0.00 | 0.00 | 73 | 1019.7 |
| 20260505123513 | 71 | 266 | 1.7 | 4.3 | 0.00 | 0.00 | 0.00 | 75 | 1019.7 |
| 20260505123044 | 70 | 275 | 0.9 | 4.3 | 0.00 | 0.00 | 0.00 | 77 | 1019.7 |
| 20260505122513 | 70 | 277 | 1.7 | 4.3 | 0.00 | 0.00 | 0.00 | 79 | 1019.7 |
| 20260505122017 | 69 | 233 | 0.9 | 4.3 | 0.00 | 0.00 | 0.00 | 82 | 1019.6 |
| 20260505121546 | 68 | 236 | 2.6 | 4.3 | 0.00 | 0.00 | 0.00 | 86 | 1019.6 |
| 20260505121019 | 66 | 248 | 0.9 | 2.6 | 0.00 | 0.00 | 0.00 | 90 | 1019.6 |
| 20260505120515 | 65 | 249 | 0.0 | 2.6 | 0.00 | 0.00 | 0.00 | 92 | 1019.6 |
| 20260505120046 | 63 | 249 | 0.0 | 0.0 | 0.00 | 0.00 | 0.00 | 93 | 1019.6 |
| 20260505115515 | 62 | 247 | 0.0 | 0.0 | 0.00 | 0.00 | 0.00 | 93 | 1019.6 |
| 20260505115015 | 61 | 247 | 0.0 | 0.0 | 0.00 | 0.00 | 0.00 | 94 | 1019.5 |
| 20260505114552 | 60 | 247 | 0.0 | 0.0 | 0.00 | 0.00 | 0.00 | 94 | 1019.5 |
| 20260505114018 | 59 | 247 | 0.0 | 0.0 | 0.00 | 0.00 | 0.00 | 94 | 1019.8 |
| 20260505113516 | 58 | 247 | 0.0 | 0.0 | 0.00 | 0.00 | 0.00 | 94 | 1019.7 |
| 20260505113106 | 57 | 247 | 0.0 | 0.0 | 0.00 | 0.00 | 0.00 | 94 | 1019.6 |
| 20260505112514 | 57 | 247 | 0.0 | 0.0 | 0.00 | 0.00 | 0.00 | 94 | 1019.6 |
| 20260505112015 | 56 | 247 | 0.0 | 0.0 | 0.00 | 0.00 | 0.00 | 94 | 1019.3 |
| 20260505111542 | 56 | 247 | 0.0 | 0.0 | 0.00 | 0.00 | 0.00 | 94 | 1019.5 |
| 20260505111017 | 56 | 247 | 0.0 | 0.0 | 0.00 | 0.00 | 0.00 | 94 | 1019.4 |
| 20260505110529 | 55 | 247 | 0.0 | 0.0 | 0.00 | 0.00 | 0.00 | 94 | 1019.3 |
| 20260505102016 | 54 | 247 | 0.0 | 0.0 | 0.00 | 0.00 | 0.00 | 93 | 1018.8 |
| 20260505101554 | 54 | 247 | 0.0 | 0.0 | 0.00 | 0.00 | 0.00 | 93 | 1018.8 |
| 20260505101013 | 54 | 247 | 0.0 | 0.0 | 0.00 | 0.00 | 0.00 | 93 | 1018.6 |
| 20260505100518 | 54 | 247 | 0.0 | 0.0 | 0.00 | 0.00 | 0.00 | 93 | 1018.5 |
| 20260505100053 | 54 | 247 | 0.0 | 0.0 | 0.00 | 0.00 | 0.00 | 93 | 1018.6 |
| 20260505095517 | 54 | 247 | 0.0 | 0.0 | 0.00 | 0.00 | 0.00 | 93 | 1018.5 |
| 20260505095016 | 54 | 247 | 0.0 | 0.0 | 0.00 | 0.00 | 0.00 | 93 | 1018.6 |
| 20260505094557 | 54 | 247 | 0.0 | 0.0 | 0.00 | 0.00 | 0.00 | 93 | 1018.5 |
| 20260505094014 | 54 | 247 | 0.0 | 0.0 | 0.00 | 0.00 | 0.00 | 93 | 1018.2 |
| 20260505093518 | 54 | 247 | 0.0 | 0.0 | 0.00 | 0.00 | 0.00 | 93 | 1018.4 |
| 20260505093051 | 54 | 247 | 0.0 | 0.0 | 0.00 | 0.00 | 0.00 | 92 | 1018.1 |
| 20260505092515 | 54 | 247 | 0.0 | 0.0 | 0.00 | 0.00 | 0.00 | 92 | 1018.0 |
| 20260505092016 | 54 | 247 | 0.0 | 0.0 | 0.00 | 0.00 | 0.00 | 92 | 1018.0 |
| 20260505091608 | 55 | 247 | 0.0 | 0.0 | 0.00 | 0.00 | 0.00 | 92 | 1017.9 |
| 20260505091019 | 55 | 247 | 0.0 | 0.0 | 0.00 | 0.00 | 0.00 | 92 | 1017.8 |
| 20260505090517 | 55 | 247 | 0.0 | 0.0 | 0.00 | 0.00 | 0.00 | 92 | 1017.6 |
| 20260505090100 | 55 | 247 | 0.0 | 0.0 | 0.00 | 0.00 | 0.00 | 92 | 1017.7 |
| 20260505085516 | 55 | 247 | 0.0 | 0.0 | 0.00 | 0.00 | 0.00 | 92 | 1017.7 |
| 20260505085017 | 55 | 247 | 0.0 | 0.0 | 0.00 | 0.00 | 0.00 | 92 | 1017.7 |
| 20260505084555 | 55 | 247 | 0.0 | 0.0 | 0.00 | 0.00 | 0.00 | 92 | 1017.8 |
| 20260505084019 | 55 | 247 | 0.0 | 0.0 | 0.00 | 0.00 | 0.00 | 92 | 1017.6 |
| 20260505083515 | 55 | 247 | 0.0 | 0.0 | 0.00 | 0.00 | 0.00 | 92 | 1017.8 |
| 20260505083051 | 55 | 247 | 0.0 | 0.0 | 0.00 | 0.00 | 0.00 | 92 | 1017.7 |
| 20260505082516 | 55 | 247 | 0.0 | 0.0 | 0.00 | 0.00 | 0.00 | 92 | 1017.8 |
| 20260505082015 | 55 | 247 | 0.0 | 0.0 | 0.00 | 0.00 | 0.00 | 91 | 1017.7 |
| 20260505081559 | 55 | 247 | 0.0 | 0.0 | 0.00 | 0.00 | 0.00 | 91 | 1017.7 |
| 20260505081016 | 55 | 247 | 0.0 | 0.0 | 0.00 | 0.00 | 0.00 | 91 | 1017.8 |
| 20260505080515 | 55 | 247 | 0.0 | 0.0 | 0.00 | 0.00 | 0.00 | 91 | 1017.8 |
| 20260505080105 | 55 | 247 | 0.0 | 0.0 | 0.00 | 0.00 | 0.00 | 91 | 1017.8 |
| 20260505075515 | 55 | 247 | 0.0 | 0.0 | 0.00 | 0.00 | 0.00 | 91 | 1017.7 |
| 20260505075019 | 55 | 247 | 0.0 | 0.0 | 0.00 | 0.00 | 0.00 | 91 | 1017.6 |
| 20260505074559 | 55 | 247 | 0.0 | 0.0 | 0.00 | 0.00 | 0.00 | 91 | 1017.7 |
| 20260505074016 | 55 | 247 | 0.0 | 0.0 | 0.00 | 0.00 | 0.00 | 91 | 1017.5 |
| 20260505073517 | 55 | 247 | 0.0 | 0.0 | 0.00 | 0.00 | 0.00 | 91 | 1017.5 |
| 20260505073057 | 55 | 247 | 0.0 | 0.0 | 0.00 | 0.00 | 0.00 | 90 | 1017.6 |
| 20260505072521 | 55 | 247 | 0.0 | 0.0 | 0.00 | 0.00 | 0.00 | 90 | 1017.6 |
| 20260505072015 | 56 | 247 | 0.0 | 0.0 | 0.00 | 0.00 | 0.00 | 90 | 1017.6 |
| 20260505071558 | 56 | 247 | 0.0 | 0.0 | 0.00 | 0.00 | 0.00 | 90 | 1017.8 |
| 20260505071016 | 56 | 247 | 0.0 | 0.0 | 0.00 | 0.00 | 0.00 | 89 | 1017.3 |
| 20260505070519 | 56 | 247 | 0.0 | 0.0 | 0.00 | 0.00 | 0.00 | 89 | 1017.6 |
| 20260505070104 | 56 | 247 | 0.0 | 0.0 | 0.00 | 0.00 | 0.00 | 89 | 1017.6 |
| 20260505065518 | 56 | 247 | 0.0 | 0.0 | 0.00 | 0.00 | 0.00 | 89 | 1017.5 |
| 20260505065015 | 56 | 247 | 0.0 | 0.0 | 0.00 | 0.00 | 0.00 | 88 | 1017.8 |
| 20260505064820 | 57 | 247 | 0.0 | 0.0 | 0.00 | 0.00 | 0.00 | 88 | 1017.8 |
| 20260505064018 | 57 | 247 | 0.0 | 1.7 | 0.00 | 0.00 | 0.00 | 88 | 1017.7 |
| 20260505063518 | 57 | 247 | 0.0 | 2.6 | 0.00 | 0.00 | 0.00 | 88 | 1017.8 |
| 20260505063138 | 57 | 247 | 0.0 | 2.6 | 0.00 | 0.00 | 0.00 | 88 | 1017.8 |
| 20260505062521 | 57 | 245 | 0.0 | 2.6 | 0.00 | 0.00 | 0.00 | 88 | 1017.9 |
| 20260505062015 | 57 | 244 | 0.0 | 2.6 | 0.00 | 0.00 | 0.00 | 87 | 1018.0 |
| 20260505061640 | 57 | 244 | 0.0 | 1.7 | 0.00 | 0.00 | 0.00 | 87 | 1018.1 |
| 20260505061016 | 57 | 245 | 0.0 | 0.0 | 0.00 | 0.00 | 0.00 | 87 | 1017.8 |
| 20260505060521 | 57 | 245 | 0.0 | 0.0 | 0.00 | 0.00 | 0.00 | 87 | 1017.9 |
| 20260505060114 | 57 | 245 | 0.0 | 0.0 | 0.00 | 0.00 | 0.00 | 86 | 1018.2 |
| 20260505055522 | 58 | 245 | 0.0 | 0.0 | 0.00 | 0.00 | 0.00 | 86 | 1018.2 |
| 20260505055020 | 58 | 245 | 0.0 | 0.0 | 0.00 | 0.00 | 0.00 | 86 | 1018.2 |
| 20260505054611 | 58 | 245 | 0.0 | 1.7 | 0.00 | 0.00 | 0.00 | 85 | 1018.3 |
| 20260505054021 | 58 | 244 | 0.0 | 2.6 | 0.00 | 0.00 | 0.00 | 86 | 1018.1 |
| 20260505053517 | 59 | 244 | 0.0 | 2.6 | 0.00 | 0.00 | 0.00 | 86 | 1018.3 |
| 20260505053112 | 59 | 243 | 0.0 | 2.6 | 0.00 | 0.00 | 0.00 | 86 | 1018.6 |
| 20260505052517 | 59 | 241 | 0.0 | 1.7 | 0.00 | 0.00 | 0.00 | 86 | 1018.4 |
| 20260505052019 | 58 | 240 | 0.0 | 1.7 | 0.00 | 0.00 | 0.00 | 87 | 1018.4 |
| 20260505051615 | 58 | 240 | 0.0 | 0.0 | 0.00 | 0.00 | 0.00 | 86 | 1018.5 |
| 20260505051021 | 58 | 240 | 0.0 | 0.0 | 0.00 | 0.00 | 0.00 | 87 | 1018.6 |
| 20260505050523 | 58 | 241 | 0.0 | 0.0 | 0.00 | 0.00 | 0.00 | 87 | 1018.6 |
| 20260505050115 | 58 | 241 | 0.0 | 0.0 | 0.00 | 0.00 | 0.00 | 87 | 1018.6 |
| 20260505041548 | 58 | 241 | 0.0 | 0.0 | 0.00 | 0.00 | 0.00 | 85 | 1018.5 |
| 20260505041016 | 58 | 241 | 0.0 | 0.0 | 0.00 | 0.00 | 0.00 | 84 | 1018.7 |
| 20260505040517 | 58 | 241 | 0.0 | 0.0 | 0.00 | 0.00 | 0.00 | 84 | 1018.7 |
| 20260505040050 | 58 | 241 | 0.0 | 0.0 | 0.00 | 0.00 | 0.00 | 84 | 1018.7 |
| 20260505035530 | 59 | 241 | 0.0 | 1.7 | 0.00 | 0.00 | 0.00 | 83 | 1018.7 |
| 20260505035018 | 59 | 241 | 0.0 | 1.7 | 0.00 | 0.00 | 0.00 | 83 | 1018.8 |
| 20260505034618 | 59 | 241 | 0.0 | 1.7 | 0.00 | 0.00 | 0.00 | 83 | 1018.8 |
| 20260505034020 | 59 | 241 | 0.0 | 1.7 | 0.00 | 0.00 | 0.00 | 82 | 1018.7 |
| 20260505033523 | 60 | 241 | 0.0 | 1.7 | 0.00 | 0.00 | 0.00 | 82 | 1018.7 |
| 20260505033119 | 60 | 241 | 0.0 | 2.6 | 0.00 | 0.00 | 0.00 | 81 | 1018.9 |
| 20260505032521 | 60 | 241 | 0.9 | 2.6 | 0.00 | 0.00 | 0.00 | 81 | 1018.8 |
| 20260505032020 | 60 | 242 | 0.0 | 1.7 | 0.00 | 0.00 | 0.00 | 81 | 1018.8 |
| 20260505031621 | 60 | 242 | 0.0 | 1.7 | 0.00 | 0.00 | 0.00 | 81 | 1018.8 |
| 20260505031020 | 60 | 241 | 0.0 | 0.0 | 0.00 | 0.00 | 0.00 | 81 | 1018.9 |
| 20260505030521 | 60 | 242 | 0.0 | 0.0 | 0.00 | 0.00 | 0.00 | 81 | 1018.8 |
| 20260505030132 | 60 | 244 | 0.0 | 0.0 | 0.00 | 0.00 | 0.00 | 80 | 1018.9 |
| 20260505025521 | 60 | 243 | 0.0 | 0.0 | 0.00 | 0.00 | 0.00 | 80 | 1018.9 |
| 20260505025020 | 60 | 242 | 0.0 | 0.0 | 0.00 | 0.00 | 0.00 | 80 | 1018.9 |
| 20260505024630 | 60 | 242 | 0.0 | 0.0 | 0.00 | 0.00 | 0.00 | 80 | 1018.9 |
| 20260505024020 | 60 | 242 | 0.0 | 0.0 | 0.00 | 0.00 | 0.00 | 79 | 1018.8 |
| 20260505023518 | 60 | 242 | 0.0 | 0.0 | 0.00 | 0.00 | 0.00 | 78 | 1018.8 |
| 20260505023117 | 61 | 242 | 0.0 | 0.0 | 0.00 | 0.00 | 0.00 | 78 | 1018.8 |
| 20260505022520 | 61 | 242 | 0.0 | 0.0 | 0.00 | 0.00 | 0.00 | 77 | 1018.8 |
| 20260505022020 | 61 | 242 | 0.0 | 0.9 | 0.00 | 0.00 | 0.00 | 77 | 1018.9 |
| 20260505021619 | 61 | 244 | 0.0 | 0.9 | 0.00 | 0.00 | 0.00 | 76 | 1018.9 |
| 20260505021020 | 62 | 241 | 0.0 | 2.6 | 0.00 | 0.00 | 0.00 | 76 | 1018.9 |
| 20260505020521 | 62 | 241 | 0.9 | 2.6 | 0.00 | 0.00 | 0.00 | 76 | 1018.7 |
| 20260505020121 | 62 | 242 | 0.0 | 0.9 | 0.00 | 0.00 | 0.00 | 75 | 1018.8 |
| 20260505015521 | 62 | 242 | 0.0 | 2.6 | 0.00 | 0.00 | 0.00 | 75 | 1018.7 |
| 20260505015021 | 62 | 242 | 0.0 | 2.6 | 0.00 | 0.00 | 0.00 | 74 | 1018.8 |
| 20260505014618 | 63 | 249 | 0.0 | 0.0 | 0.00 | 0.00 | 0.00 | 74 | 1018.8 |
| 20260505014024 | 63 | 247 | 0.0 | 2.6 | 0.00 | 0.00 | 0.00 | 74 | 1018.7 |
| 20260505013520 | 63 | 247 | 0.9 | 2.6 | 0.00 | 0.00 | 0.00 | 74 | 1018.8 |
| 20260505013115 | 63 | 248 | 0.0 | 3.5 | 0.00 | 0.00 | 0.00 | 74 | 1018.7 |
| 20260505012520 | 63 | 249 | 0.0 | 2.6 | 0.00 | 0.00 | 0.00 | 73 | 1018.7 |
| 20260505012031 | 63 | 249 | 0.9 | 2.6 | 0.00 | 0.00 | 0.00 | 73 | 1018.7 |
| 20260505011553 | 63 | 248 | 0.0 | 1.7 | 0.00 | 0.00 | 0.00 | 73 | 1018.4 |
| 20260505011020 | 64 | 249 | 0.0 | 1.7 | 0.00 | 0.00 | 0.00 | 72 | 1018.3 |
| 20260505010518 | 64 | 250 | 0.0 | 2.6 | 0.00 | 0.00 | 0.00 | 71 | 1018.2 |
| 20260505010113 | 64 | 247 | 0.0 | 2.6 | 0.00 | 0.00 | 0.00 | 71 | 1018.2 |
| 20260505005520 | 64 | 246 | 0.0 | 2.6 | 0.00 | 0.00 | 0.00 | 70 | 1018.2 |
| 20260505005017 | 65 | 247 | 0.0 | 2.6 | 0.00 | 0.00 | 0.00 | 69 | 1018.3 |
| 20260505004815 | 65 | 246 | 0.9 | 3.5 | 0.00 | 0.00 | 0.00 | 68 | 1018.2 |
| 20260505004014 | 65 | 245 | 0.0 | 3.5 | 0.00 | 0.00 | 0.00 | 68 | 1018.3 |
| 20260505003518 | 66 | 238 | 0.9 | 6.1 | 0.00 | 0.00 | 0.00 | 67 | 1018.3 |
| 20260505003101 | 66 | 238 | 1.7 | 6.1 | 0.00 | 0.00 | 0.00 | 66 | 1018.3 |
| 20260505002515 | 66 | 239 | 2.6 | 5.2 | 0.00 | 0.00 | 0.00 | 65 | 1018.0 |
| 20260505002014 | 66 | 240 | 1.7 | 5.2 | 0.00 | 0.00 | 0.00 | 65 | 1018.1 |
| 20260505001609 | 66 | 191 | 1.7 | 5.2 | 0.00 | 0.00 | 0.00 | 64 | 1018.0 |
| 20260505001014 | 67 | 197 | 0.9 | 4.3 | 0.00 | 0.00 | 0.00 | 64 | 1018.0 |
| 20260505000515 | 67 | 224 | 0.9 | 4.3 | 0.00 | 0.00 | 0.00 | 63 | 1018.0 |
| 20260505000117 | 67 | 209 | 1.7 | 6.1 | 0.00 | 0.00 | 0.00 | 62 | 1017.9 |
| 20260504235516 | 67 | 276 | 2.6 | 6.1 | 0.00 | 0.00 | 0.00 | 62 | 1017.8 |
| 20260504235017 | 68 | 277 | 1.7 | 7.0 | 0.00 | 0.00 | 0.00 | 61 | 1017.8 |
| 20260504234609 | 68 | 205 | 4.3 | 7.0 | 0.00 | 0.00 | 0.00 | 61 | 1017.9 |
| 20260504234016 | 68 | 224 | 1.7 | 8.7 | 0.00 | 0.00 | 0.00 | 61 | 1017.7 |
| 20260504233515 | 68 | 165 | 2.6 | 8.7 | 0.00 | 0.00 | 0.00 | 61 | 1017.8 |
| 20260504233112 | 68 | 216 | 2.6 | 7.8 | 0.00 | 0.00 | 0.00 | 61 | 1017.8 |
| 20260504232516 | 69 | 166 | 3.5 | 7.8 | 0.00 | 0.00 | 0.00 | 61 | 1017.7 |
| 20260504232017 | 69 | 253 | 3.5 | 8.7 | 0.00 | 0.00 | 0.00 | 61 | 1017.7 |
| 20260504231607 | 69 | 250 | 2.6 | 7.0 | 0.00 | 0.00 | 0.00 | 61 | 1017.8 |
| 20260504231014 | 69 | 179 | 2.6 | 7.0 | 0.00 | 0.00 | 0.00 | 61 | 1017.7 |
| 20260504230517 | 69 | 231 | 4.3 | 10.4 | 0.00 | 0.00 | 0.00 | 61 | 1017.7 |
| 20260504230120 | 69 | 231 | 4.3 | 12.2 | 0.00 | 0.00 | 0.00 | 60 | 1017.8 |
| 20260504225519 | 69 | 177 | 3.5 | 11.3 | 0.00 | 0.00 | 0.00 | 60 | 1017.8 |
| 20260504225018 | 69 | 199 | 5.2 | 11.3 | 0.00 | 0.00 | 0.00 | 60 | 1017.8 |
| 20260504224620 | 70 | 181 | 5.2 | 13.0 | 0.00 | 0.00 | 0.00 | 59 | 1017.8 |